[Iaude] MPEC R63: 2023 RR1 [a=2.49,e=0.56,i=5.3,H=24.1]
    mpec at marsden.cfa.harvard.edu 
    mpec at marsden.cfa.harvard.edu
       
    Fri Sep  8 17:33:17 EDT 2023
    
    
  
M.P.E.C. 2023-R63                             Issued 2023 September 8, 21:31 UT
     The Minor Planet Electronic Circulars contain information on unusual
         minor planets, routine data on comets and natural satellites,
         and occasional editorial announcements.  They are published
    on behalf of Division F of the International Astronomical Union by the
          Minor Planet Center, Smithsonian Astrophysical Observatory,
                          Cambridge, MA 02138, U.S.A.
			  
             Prepared using the Tamkin Foundation Computer Network
                              MPC at CFA.HARVARD.EDU
            URL https://www.minorplanetcenter.net/    ISSN 1523-6714
                                    2023 RR1                                    
Observations:
     K23R01R*1C2023 09 07.29474422 54 02.970-12 45 41.87         19.63GVER063G96
     K23R01R 1C2023 09 07.29990322 54 05.360-12 45 49.68         19.56GVER063G96
     K23R01R 1C2023 09 07.30505922 54 07.787-12 45 57.20         19.63GVER063G96
     K23R01R 1C2023 09 07.31022522 54 10.202-12 46 04.94         19.73GVER063G96
     K23R01R 1C2023 09 07.88027722 59 00.450-13 00 31.50               VER063246
     K23R01R 1C2023 09 07.88051422 59 00.640-13 00 31.40               VER063246
     K23R01R 1C2023 09 07.88075122 59 00.630-13 00 31.90               VER063246
     K23R01R KC2023 09 07.90066622 59 10.07 -13 00 59.8          19.3 GVER063L01
     K23R01R KC2023 09 07.90255822 59 10.97 -13 01 02.6          19.3 GVER063L01
     K23R01R KC2023 09 07.90445222 59 11.91 -13 01 05.4          19.1 GVER063L01
     K23R01R KB2023 09 08.06123623 00 29.11 -13 04 58.7          19.4 GVER063I93
     K23R01R KB2023 09 08.06642023 00 31.70 -13 05 05.5          19.8 GVER063I93
     K23R01R KB2023 09 08.07142723 00 34.13 -13 05 12.3          20.1 GVER063I93
     K23R01R  C2023 09 08.25349623 02 12.130-13 09 32.90         19.7 GVER063654
     K23R01R  C2023 09 08.25719523 02 13.930-13 09 38.56         19.7 GVER063654
     K23R01R KC2023 09 08.26785423 02 18.15 -13 09 56.2          19.9 GXER063858
     K23R01R KC2023 09 08.27317523 02 20.76 -13 10 04.0          19.6 GXER063858
     K23R01R KC2023 09 08.27937423 02 23.76 -13 10 12.9          20.0 GXER063858
     K23R01R  C2023 09 08.42070423 03 33.873-13 13 38.43         20.0 GVER063654
     K23R01R  C2023 09 08.42471423 03 35.864-13 13 43.89         20.0 GVER063654
     K23R01R KC2023 09 08.50594 23 04 23.44 -13 14 10.1          19.6 VqER063E23
     K23R01R KC2023 09 08.52330 23 04 32.03 -13 14 32.9          18.9 VqER063E23
     K23R01R KC2023 09 08.54066 23 04 40.52 -13 15 00.9          19.7 VqER063E23
     K23R01R 1C2023 09 08.87902523 07 39.280-13 25 03.90               VER063246
     K23R01R 1C2023 09 08.88015523 07 39.910-13 25 05.20               VER063246
Observer details:
246 Klet Observatory-KLENOT.  Observers M. Tichy, J. Ticha, M. Janda, M.
    Honkova.  Measurer M. Tichy.  1.06-m f/2.7 Reflector + 2048x2048 CCD.
654 Table Mountain Observatory, Wrightwood-PHMC.  Observers N. Evans, P. Choi,
    N. Saini, C. Zhai, R. Trahan, M. Shao.  1.0-m Reflector + CCD.
858 Tebbutt Observatory, Edgewood.  Observer F. B. Zoltowski.  0.51-m f/8.1
    Schmidt-Cassegrain + CCD.
E23 Arcadia.  Observer A. Hidas.  0.35-m f/1.9 reflector + CCD.
G96 Mt. Lemmon Survey.  Observer A. R. Gibbs.  Measurers E. J. Christensen, D.
    Fay, J. B. Fazekas, D. C. Fuls, A. R. Gibbs, A. D. Grauer, H. Groeller, J.
    K. Hogan, R. A. Kowalski, S. M. Larson, G. J. Leonard, D. Rankin, R. L.
    Seaman, A. Serrano, F. C. Shelly, K. W. Wierzchos.  1.5-m reflector + 10K
    CCD.
I93 St Pardon de Conques.  Observer F. Losse.  0.40-m f/3.7 reflector + CMO.
L01 Visnjan Observatory, Tican.  Observer K. Korlevic.  1.0-m f/2.9 reflector
    + CCD.
Orbital elements:
2023 RR1                                                 Earth MOID = 0.0916 AU
Epoch 2023 Sept. 13.0 TT = JDT 2460200.5                Veres                   
M 357.50090              (2000.0)            P               Q                  
n   0.25010410     Peri.  201.96486     +0.99936268     -0.01105990             
a   2.4949136      Node   158.58483     +0.02124898     +0.94830132             
e   0.5628805      Incl.    5.33358     -0.02868286     +0.31717863             
P   3.94           H   24.18          G   0.15           U   9                  
Residuals in seconds of arc
230907 G96  0.0   0.2-    230907 L01  0.3-  0.4+    230908 654  0.1-  0.2-
230907 G96  0.2-  0.2-    230908 I93  0.4-  0.7-    230908 654  0.0   0.0
230907 G96  0.0   0.0     230908 I93  0.4+  0.0     230908 E23  0.1-  1.8-
230907 G96  0.0   0.0     230908 I93  0.1+  0.4+    230908 E23  0.4+  1.6+
230907 246  6.3+  0.4+    230908 654  0.0   0.0     230908 E23  0.3-  0.4-
230907 246  7.4+  0.9+    230908 654  0.1-  0.0     230908 246  0.2+  0.0
230907 246  5.6+  0.7+    230908 858  0.1-  0.1+    230908 246  1.0+  0.4+
230907 L01  0.3-  0.3+    230908 858  0.1+  0.2+
230907 L01  0.6-  0.3+    230908 858  0.1-  0.5+
Ephemeris:
2023 RR1                 a,e,i = 2.49, 0.56, 5                   q = 1.0906
Date    TT    R. A. (2000) Decl.     Delta      r    Elong.  Phase     V
2023 08 09    20 52 00.1 -04 51 40   0.2097  1.2196   167.6    10.3    21.9
...
2023 08 24    21 29 16.0 -07 27 06   0.1418  1.1508   169.4     9.3    20.9
...
2023 09 01    22 08 33.3 -10 08 50   0.1151  1.1236   172.4     6.8    20.2
...
2023 09 07    22 51 36.2 -12 37 15   0.1009  1.1083   173.4     6.0    19.9
2023 09 08    22 59 59.0 -13 02 12   0.09912 1.1061   172.9     6.5    19.9
2023 09 09    23 08 41.0 -13 26 41   0.09751 1.1041   172.2     7.1    19.9
...
2023 09 15    00 06 01.9 -15 29 22   0.09207 1.0950   164.8    13.9    20.0
...
2023 09 23    01 23 45.8 -16 18 51   0.09622 1.0906   153.4    24.3    20.4
...
2023 10 08    02 59 38.1 -13 28 26   0.1301  1.1061   143.0    32.9    21.4
M. P. C. Staff               (C) Copyright 2023 MPC           M.P.E.C. 2023-R63
    
    
More information about the Iaude
mailing list